Hurricane Symbol View the latest observations near Atlantic Tropical Storm Alberto.

Station CWBF1 - 8726724 - Clearwater Beach, FL Image indicating link to RSS feed of recent meteorological observations for station CWBF1


Conditions at CWBF1 as of
(7:48 pm EDT)
2348 GMT on 06/19/2024:
     

Click on the graph icon in the table below to see a time series plot of the last five days of that observation.

5-day plot - Wind Direction Wind Direction (WDIR): NE ( 40 deg true )
5-day plot - Wind Speed Wind Speed (WSPD): 15.0 kts
5-day plot - Wind Gust Wind Gust (GST): 20.0 kts
5-day plot - Atmospheric Pressure Atmospheric Pressure (PRES):30.03 in
5-day plot - Air Temperature Air Temperature (ATMP): 80.2 °F
5-day plot - Water Temperature Water Temperature (WTMP): 87.3 °F
5-day plot - Wind Speed at 10 Meters Wind Speed at 10 meters (WSPD10M): 15.5 kts
5-day plot - Wind Speed at 20 Meters Wind Speed at 20 meters (WSPD20M): 17.5 kts
5-day plot -  Wind Speed, Wind Gust and Atmospheric Pressure Combined plot of Wind Speed, Gust, and Air Pressure
NOS Water Level Observation Network Water Level
Previous observations
TIME
(EDT)
5-day plot - Wind Direction
WDIR
 
5-day plot - Wind Speed
WSPD
kts
5-day plot - Wind Gust
GST
kts
5-day plot - Wave Height
WVHT
ft
5-day plot - Dominant Wave Period
DPD
sec
5-day plot - Average Wave Period
APD
sec
5-day plot - Mean Wave Direction
MWD
 
5-day plot - Atmospheric Pressure
PRES
in
5-day plot - Pressure Tendency
PTDY
in
5-day plot - Air Temperature
ATMP
°F
5-day plot - Water Temperature
WTMP
°F
5-day plot - Dew Point
DEWP
°F
5-day plot - Salinity
SAL
psu
5-day plot - Visibility
VIS
nmi
5-day plot - Tide (above MLLW)
TIDE
ft
2024-06-19 07:42 pm NE 15.9 21.0----30.03- 80.6 87.3----
2024-06-19 07:36 pm NE 14.0 22.0----30.03- 81.0 87.3----
2024-06-19 07:30 pm NE 17.1 22.9----30.03- 81.5 87.3----
2024-06-19 07:24 pm NE 13.0 17.1----30.03- 82.0 87.3----
2024-06-19 07:18 pm NE 11.1 22.9----30.03- 82.4 87.3----
2024-06-19 07:12 pm NE 17.1 22.9----30.03- 82.6 87.3----
2024-06-19 07:06 pm NE 15.0 18.1----30.03- 83.3 87.3----
2024-06-19 07:00 pmENE 12.0 21.0----30.03+0.00 83.3 87.3----
2024-06-19 06:54 pmENE 12.0 18.1----30.03- 83.1 87.4----
2024-06-19 06:48 pmENE 15.9 19.0----30.02-- 87.4----
2024-06-19 06:42 pmENE 9.9 13.0----30.02-- 87.4----
2024-06-19 06:36 pm E 11.1 17.1----30.02-- 87.3----
2024-06-19 06:30 pm E 14.0 19.0----30.02- 82.6 87.3----
2024-06-19 06:24 pmENE 11.1 17.1----30.02- 82.2 87.3----
2024-06-19 06:18 pm E 8.0 15.9----30.03- 82.6-----
2024-06-19 06:12 pm E 9.9 17.1----30.02- 82.0-----
2024-06-19 06:06 pmENE 11.1 14.0----30.02- 81.9-----
2024-06-19 06:00 pmENE 13.0 15.9----30.03+0.00 82.2 87.4----
2024-06-19 05:54 pm NE 13.0 18.1----30.03- 82.2 87.4----
2024-06-19 05:48 pm NE 14.0 20.0----30.02- 82.6 87.4----
2024-06-19 05:42 pm NE 17.1 22.0----30.02- 83.1 87.4----
2024-06-19 05:36 pmENE 9.9 17.1----30.02- 86.0 87.4----
2024-06-19 05:30 pm E 9.9 15.9----30.03- 86.4 87.4----
2024-06-19 05:24 pm E 14.0 22.0----30.03- 86.4 87.4----
2024-06-19 05:18 pmENE 14.0 20.0----30.03- 86.2 87.4----
2024-06-19 05:12 pmENE 14.0 22.0----30.02- 86.5 87.3----
2024-06-19 05:06 pmENE 15.9 22.0----30.02- 86.2 87.3----
2024-06-19 05:00 pm E 8.9 18.1----30.03-0.03 86.9 87.3----
2024-06-19 04:54 pmENE 12.0 20.0----30.02- 86.2 87.3----
2024-06-19 04:48 pm E 12.0 20.0----30.02- 86.5 87.3----
2024-06-19 04:42 pm E 11.1 15.9----30.02- 86.7 87.3----
2024-06-19 04:36 pm E 11.1 15.0----30.02- 86.4 87.3----
2024-06-19 04:30 pmENE 11.1 18.1----30.02- 85.1 87.3----
2024-06-19 04:24 pmENE 15.0 19.0----30.02- 84.7 87.3----
2024-06-19 04:18 pm E 13.0 18.1----30.02- 84.9 87.1----
2024-06-19 04:12 pmENE 13.0 18.1----30.02- 84.2 87.3----
2024-06-19 04:06 pm E 13.0 17.1----30.02- 84.6 87.3----
2024-06-19 04:00 pmENE 13.0 19.0----30.02-0.02 84.6 87.3----
2024-06-19 03:54 pm E 14.0 22.0----30.03- 84.4 87.3----
2024-06-19 03:48 pmENE 15.0 21.0----30.02- 84.9 87.1----
2024-06-19 03:42 pm E 13.0 20.0----30.03- 84.9 87.1----
2024-06-19 03:36 pm E 11.1 18.1----30.03- 85.5 87.1----
2024-06-19 03:30 pm E 12.0 18.1----30.02- 85.6 87.1----
2024-06-19 03:24 pm E 13.0 19.0----30.02- 85.5 87.1----
2024-06-19 03:18 pm E 13.0 19.0----30.02- 85.3 87.1----
2024-06-19 03:12 pm E 8.9 17.1----30.03- 86.0 87.1----
2024-06-19 03:06 pm E 12.0 18.1----30.03- 85.6 86.9----
2024-06-19 03:00 pm E 13.0 18.1----30.03-0.01 85.3 86.9----
2024-06-19 02:54 pm E 12.0 17.1----30.03- 85.6 86.9----
2024-06-19 02:48 pm E 9.9 17.1----30.04- 84.7 86.9----
2024-06-19 02:42 pm E 9.9 15.0----30.04- 84.9 86.7----
2024-06-19 02:36 pm E 12.0 15.0----30.04- 83.8 86.7----
2024-06-19 02:30 pmENE 12.0 19.0----30.04- 83.8 86.7----
2024-06-19 02:24 pmENE 12.0 17.1----30.05- 83.1 86.7----
2024-06-19 02:18 pm E 11.1 15.9----30.05- 83.3 86.7----
2024-06-19 02:12 pm E 11.1 15.9----30.05- 83.7 86.7----
2024-06-19 02:06 pm E 12.0 17.1----30.05- 83.3 86.7----
2024-06-19 02:00 pm E 13.0 20.0----30.05+0.02 83.7 86.7----
2024-06-19 01:54 pm E 13.0 18.1----30.05- 84.0 86.7----
2024-06-19 01:48 pm E 9.9 17.1----30.05- 83.7 86.5----
2024-06-19 01:42 pm E 12.0 17.1----30.05- 82.9 86.5----
2024-06-19 01:36 pm E 12.0 18.1----30.05- 82.4 86.5----
2024-06-19 01:30 pmESE 12.0 18.1----30.05- 81.3 86.5----
2024-06-19 01:24 pmESE 14.0 22.9----30.05- 80.4 86.5----
2024-06-19 01:18 pmESE 15.9 25.1----30.05- 80.8 86.5----
2024-06-19 01:12 pm E 13.0 20.0----30.05- 84.9 86.5----
2024-06-19 01:06 pm E 13.0 15.9----30.04- 86.5 86.5----
2024-06-19 01:00 pmENE 9.9 15.9----30.04+0.02 86.4 86.5----
2024-06-19 12:54 pm NE 12.0 19.0----30.04- 85.5 86.5----
2024-06-19 12:48 pm NE 11.1 18.1----30.04- 85.6 86.5----
2024-06-19 12:42 pm E 11.1 15.0----30.04- 86.7 86.5----
2024-06-19 12:36 pmENE 11.1 15.9----30.04- 86.0 86.5----
2024-06-19 12:30 pm NE 11.1 15.0----30.04- 85.8 86.5----
2024-06-19 12:24 pmENE 8.9 13.0----30.04- 86.2 86.5----
2024-06-19 12:18 pmENE 12.0 15.9----30.04- 86.4 86.5----
2024-06-19 12:12 pm E 11.1 15.9----30.04- 86.0 86.4----
2024-06-19 12:06 pmENE 12.0 15.9----30.04- 85.8 86.4----
2024-06-19 12:00 pmENE 9.9 18.1----30.04+0.02 85.5 86.4----
2024-06-19 11:54 amENE 12.0 15.9----30.04- 85.5 86.4----
2024-06-19 11:48 amENE 11.1 15.9----30.04- 85.5 86.4----
2024-06-19 11:42 amENE 8.9 17.1----30.04- 85.5 86.4----
2024-06-19 11:36 am NE 13.0 18.1----30.04- 84.6 86.4----
2024-06-19 11:30 amENE 11.1 17.1----30.03- 84.9 86.4----
2024-06-19 11:24 amENE 11.1 15.0----30.03- 84.7 86.4----
2024-06-19 11:18 amENE 8.9 14.0----30.03- 84.6 86.4----
2024-06-19 11:12 amENE 8.0 14.0----30.03- 84.9 86.4----
2024-06-19 11:06 amENE 12.0 17.1----30.03- 84.0 86.2----
2024-06-19 11:00 amENE 13.0 18.1----30.03+0.02 83.5 86.2----
2024-06-19 10:54 amENE 11.1 15.9----30.03- 83.8 86.2----
2024-06-19 10:48 amENE 9.9 15.0----30.03- 83.8 86.2----
2024-06-19 10:42 am E 9.9 14.0----30.03- 84.0 86.2----
2024-06-19 10:36 am E 12.0 17.1----30.03- 83.7 86.2----
2024-06-19 10:30 am E 9.9 17.1----30.03- 83.8 86.2----
2024-06-19 10:24 amENE 12.0 15.9----30.02- 83.1 86.2----
2024-06-19 10:18 am E 8.9 12.0----30.02- 83.7 86.2----
2024-06-19 10:12 am E 8.0 13.0----30.02- 83.3 86.2----
2024-06-19 10:06 am E 8.9 15.0----30.03- 82.8 86.2----
2024-06-19 10:00 am E 9.9 15.0----30.02+0.03 82.2 86.2----
2024-06-19 09:54 am E 8.9 17.1----30.02- 82.6 86.2----
2024-06-19 09:48 am E 12.0 15.9----30.02- 82.0 86.2----
2024-06-19 09:42 am E 9.9 15.0----30.02- 82.0 86.2----
2024-06-19 09:36 am E 9.9 15.9----30.02- 81.9 86.2----
2024-06-19 09:30 am E 8.0 14.0----30.02- 81.9 86.2----
2024-06-19 09:24 am E 13.0 18.1----30.02- 81.1 86.2----
2024-06-19 09:18 am E 7.0 9.9----30.02- 81.5 86.2----
2024-06-19 09:12 amENE 11.1 18.1----30.02- 80.8 86.2----
2024-06-19 09:06 amENE 13.0 18.1----30.02- 80.6 86.2----
2024-06-19 09:00 amENE 12.0 15.0----30.02+0.04 80.6 86.2----
2024-06-19 08:54 am E 11.1 15.9----30.02- 80.2 86.2----
2024-06-19 08:48 am E 8.9 13.0----30.02- 80.4 86.2----
2024-06-19 08:42 am E 8.9 15.9----30.03- 80.1 86.2----
2024-06-19 08:36 am E 8.0 15.0----30.03- 79.9 86.2----
2024-06-19 08:30 amENE 13.0 17.1----30.03- 79.2 86.2----
2024-06-19 08:24 am E 9.9 15.0----30.03- 79.2 86.2----
2024-06-19 08:18 amENE 12.0 19.0----30.02- 79.2 86.2----
2024-06-19 08:12 amENE 12.0 15.0----30.01- 78.8 86.2----
2024-06-19 08:06 amENE 12.0 17.1----30.01- 78.8 86.2----
2024-06-19 08:00 amENE 11.1 19.0----30.01+0.04 78.6 86.2----
2024-06-19 07:54 amENE 13.0 17.1----30.01- 78.6 86.2----
2024-06-19 07:48 amENE 9.9 15.0----30.01-- 86.2----
2024-06-19 07:42 amENE 9.9 15.0----30.01-- 86.2----
2024-06-19 07:36 amENE 11.1 15.0----30.00-- 86.2----
2024-06-19 07:30 amENE 11.1 13.0----30.00- 78.8 86.2----
2024-06-19 07:24 amENE 11.1 15.0----30.00- 78.6 86.2----
2024-06-19 07:18 amENE 9.9 15.0----30.00- 78.6 86.2----
2024-06-19 07:12 amENE 9.9 15.0----30.00- 78.3 86.2----
2024-06-19 07:06 amENE 8.0 13.0----30.00- 78.4 86.2----
2024-06-19 07:00 amENE 9.9 14.0----29.99+0.03 78.3 86.2----
2024-06-19 06:54 amENE 7.0 13.0----29.99- 78.3 86.4----
2024-06-19 06:48 amENE 11.1 14.0----29.99- 78.3 86.4----
2024-06-19 06:42 amENE 9.9 12.0----29.99- 78.3 86.4----
2024-06-19 06:36 amENE 8.9 12.0----29.99- 78.4 86.4----
2024-06-19 06:30 amENE 8.9 13.0----29.99- 78.6 86.4----
2024-06-19 06:24 amENE 8.0 13.0----29.98- 78.6 86.4----
2024-06-19 06:18 amENE 9.9 13.0----29.98- 78.4 86.4----
2024-06-19 06:12 amENE 9.9 13.0----29.99- 78.4 86.4----
2024-06-19 06:06 amENE 9.9 14.0----29.99- 78.3 86.4----
2024-06-19 06:00 amENE 8.9 13.0----29.98+0.00 78.3 86.4----
2024-06-19 05:54 amENE 8.9 13.0----29.98- 78.3 86.4----
2024-06-19 05:48 amENE 12.0 15.0----29.98- 78.3 86.4----
2024-06-19 05:42 amENE 9.9 13.0----29.98- 78.4 86.4----
2024-06-19 05:36 amENE 9.9 13.0----29.98- 78.3 86.4----
2024-06-19 05:30 amENE 8.9 12.0----29.98- 78.4 86.2----
2024-06-19 05:24 amENE 9.9 14.0----29.98- 78.3 86.2----
2024-06-19 05:18 amENE 9.9 14.0----29.98- 78.3 86.2----
2024-06-19 05:12 amENE 9.9 12.0----29.97- 78.1 86.2----
2024-06-19 05:06 amENE 7.0 9.9----29.97- 78.3 86.2----
2024-06-19 05:00 amENE 7.0 11.1----29.97-0.02 78.1 86.2----
2024-06-19 04:54 amENE 7.0 8.9----29.97- 78.1 86.2----
2024-06-19 04:48 amENE 7.0 11.1----29.97- 78.3 86.2----
2024-06-19 04:42 amENE 7.0 11.1----29.97- 78.3 86.2----
2024-06-19 04:36 amENE 6.0 9.9----29.97- 78.3 86.4----
2024-06-19 04:30 amENE 6.0 11.1----29.96- 78.3 86.2----
2024-06-19 04:24 amENE 8.9 11.1----29.97- 78.3 86.2----
2024-06-19 04:18 amENE 8.0 12.0----29.97- 78.6 86.4----
2024-06-19 04:12 amENE 6.0 9.9----29.97- 78.4 86.4----
2024-06-19 04:06 amENE 6.0 9.9----29.97- 78.4 86.4----
2024-06-19 04:00 amENE 6.0 11.1----29.97-0.04 78.3 86.4----
2024-06-19 03:54 amENE 6.0 8.9----29.97- 78.3 86.4----
2024-06-19 03:48 amENE 6.0 11.1----29.97- 78.3 86.4----
2024-06-19 03:42 amENE 7.0 9.9----29.97- 78.3 86.5----
2024-06-19 03:36 amENE 6.0 11.1----29.97- 78.1 86.5----
2024-06-19 03:30 amENE 8.0 11.1----29.97- 78.1 86.5----
2024-06-19 03:24 amENE 8.0 14.0----29.98- 77.9 86.5----
2024-06-19 03:18 amENE 8.9 12.0----29.98- 78.1 86.5----
2024-06-19 03:12 amENE 8.0 13.0----29.98- 78.3 86.5----
2024-06-19 03:06 amENE 8.9 13.0----29.98- 77.9 86.5----
2024-06-19 03:00 amENE 7.0 9.9----29.98-0.02 77.9 86.5----
2024-06-19 02:54 amENE 7.0 11.1----29.99- 78.1 86.5----
2024-06-19 02:48 amENE 7.0 12.0----29.98- 78.1 86.5----
2024-06-19 02:42 amENE 8.0 12.0----29.98- 77.9 86.5----
2024-06-19 02:36 amENE 11.1 13.0----29.98- 77.9 86.5----
2024-06-19 02:30 amENE 6.0 13.0----29.99- 78.3 86.5----
2024-06-19 02:24 am E 8.0 14.0----29.98- 78.1 86.5----
2024-06-19 02:18 amENE 8.9 12.0----29.98- 78.1 86.5----
2024-06-19 02:12 am E 8.0 11.1----29.98- 77.9 86.5----
2024-06-19 02:06 am E 8.0 13.0----29.98- 77.9 86.7----
2024-06-19 02:00 amENE 8.9 12.0----29.99+0.00 77.9 86.7----
2024-06-19 01:54 am E 7.0 12.0----29.99- 77.9 86.7----
2024-06-19 01:48 amENE 8.9 13.0----29.99- 77.9 86.7----
2024-06-19 01:42 am E 8.0 12.0----29.99- 77.9 86.7----
2024-06-19 01:36 am E 8.9 11.1----30.00- 77.7 86.7----
2024-06-19 01:30 am E 7.0 12.0----30.00-- 86.7----
2024-06-19 01:24 am E 7.0 12.0----30.00-- 86.7----
2024-06-19 01:18 amENE 7.0 11.1----30.00- 78.4 86.7----
2024-06-19 01:12 am E 6.0 12.0----30.01- 78.4 86.7----
2024-06-19 01:06 am E 11.1 15.9----30.01- 78.4 86.7----
2024-06-19 01:00 am E 8.9 14.0----30.00+0.02 78.6 86.7----
2024-06-19 12:54 amENE 12.0 17.1----30.00- 78.6 86.7----
2024-06-19 12:48 amENE 11.1 15.0----30.00- 78.8 86.7----
2024-06-19 12:42 am E 11.1 15.9----30.00- 79.0 86.7----
2024-06-19 12:36 amENE 8.0 14.0----30.00- 79.2 86.9----
2024-06-19 12:30 amENE 12.0 15.0----30.00- 79.2 86.9----
2024-06-19 12:24 am E 11.1 17.1----30.00- 79.2 86.9----
2024-06-19 12:18 am E 12.0 15.0----30.01- 79.2 86.9----
2024-06-19 12:12 am E 7.0 14.0----30.00- 79.2 86.9----
2024-06-19 12:06 am E 8.9 13.0----30.00- 79.0 86.9----
2024-06-19 12:00 am E 8.9 12.0----30.00+0.04 78.8 86.9----
2024-06-18 11:54 pm E 8.0 12.0----30.00- 78.6 86.9----
2024-06-18 11:48 pm E 8.0 12.0----30.00- 78.8 86.9----
2024-06-18 11:42 pm E 8.0 14.0----30.00- 78.8 87.1----
2024-06-18 11:36 pmENE 9.9 14.0----30.00- 78.6 87.1----
2024-06-18 11:30 pmENE 8.0 15.9----30.00- 78.8 87.1----
2024-06-18 11:24 pmENE 12.0 17.1----29.99- 78.4 87.3----
2024-06-18 11:18 pmENE 11.1 15.0----29.99- 78.6 87.3----
2024-06-18 11:12 pm E 11.1 15.0----29.99- 78.6 87.3----
2024-06-18 11:06 pmENE 9.9 18.1----29.99- 78.8 87.4----
2024-06-18 11:00 pmENE 14.0 18.1----29.99+0.02 78.6 87.4----
2024-06-18 10:54 pmENE 11.1 15.9----29.98- 78.8 87.3----
2024-06-18 10:48 pmENE 12.0 19.0----29.98- 79.0 87.3----
2024-06-18 10:42 pmENE 8.9 19.0----29.98- 79.0 87.3----
2024-06-18 10:36 pmENE 13.0 24.1----29.98- 79.0 87.4----
2024-06-18 10:30 pmENE 15.0 21.0----29.98- 79.0 87.4----
2024-06-18 10:24 pm E 11.1 13.0----29.99- 79.2 87.4----
2024-06-18 10:18 pmENE 11.1 22.0----29.98- 79.3 87.4----
2024-06-18 10:12 pmENE 15.0 21.0----29.98- 79.5 87.4----
2024-06-18 10:06 pmENE 14.0 18.1----29.98- 79.7 87.4----
2024-06-18 10:00 pm E 12.0 20.0----29.98+0.03 79.9 87.4----
2024-06-18 09:54 pmENE 13.0 17.1----29.98- 79.9 87.4----
2024-06-18 09:48 pmENE 12.0 18.1----29.98- 79.9 87.4----
2024-06-18 09:42 pm E 14.0 19.0----29.98- 79.9 87.4----
2024-06-18 09:36 pmENE 8.9 15.0----29.98- 80.1 87.4----
2024-06-18 09:30 pmENE 11.1 17.1----29.98- 80.1 87.6----
2024-06-18 09:24 pm NE 9.9 15.9----29.97- 80.1 87.6----
2024-06-18 09:18 pmENE 15.0 18.1----29.97- 80.1 87.6----
2024-06-18 09:12 pmENE 12.0 19.0----29.97- 80.2 87.6----
2024-06-18 09:06 pmENE 12.0 17.1----29.97- 80.2 87.6----
2024-06-18 09:00 pm NE 11.1 19.0----29.97+0.04 80.4 87.8----
2024-06-18 08:54 pm NE 12.0 19.0----29.97- 80.4 87.8----
2024-06-18 08:48 pm NE 12.0 19.0----29.97- 80.6 87.8----
2024-06-18 08:42 pm NE 13.0 19.0----29.97- 80.6 87.8----
2024-06-18 08:36 pmENE 14.0 22.0----29.96- 80.8 87.8----
2024-06-18 08:30 pm NE 15.0 21.0----29.96- 81.0 87.8----
2024-06-18 08:24 pm NE 15.0 22.0----29.96- 81.0 87.8----
2024-06-18 08:18 pm NE 15.0 25.1----29.96- 80.8 87.8----
2024-06-18 08:12 pmENE 15.0 20.0----29.97- 80.8 87.8----
2024-06-18 08:06 pmENE 15.9 25.1----29.97- 81.3 88.0----
2024-06-18 08:00 pmENE 12.0 18.1----29.96+0.04 82.2 88.0----
2024-06-18 07:54 pmENE 14.0 21.0----29.96- 82.4 88.0----